Tracking 32139 objects as of 18-Nov-2025
HD Live streaming from Space Station
objects crossing your sky now

CZ-4C R/B

Track CZ-4C R/B now!
10-day predictions


NORAD ID: 65816
Int'l Code: 2025-219B
Perigee: 638.2 km
Apogee: 808.5 km
Inclination: 98.6 °
Period: 99.1 minutes
Semi major axis: 7094 km
RCS: Unknown
Launch date: September 26, 2025
Source: People's Republic of China (PRC)
Launch site: Jiuquan Satellite Launch Center, China (JSC)

Note: This is a ROCKET BODY
Your satellite tracking list
Your tracking list is empty




NASA's NSSDC Master Catalog

Two Line Element Set (TLE):
1 65816U 25219B   25321.78605618  .00000699  00000-0  16685-3 0  9992
2 65816  98.6413 264.6252 0119970 243.2659 115.6217 14.52896442  7559
Source of the keplerian elements: AFSPC